Location: Muenchen
(48.1800°N, 11.5800°E)
Time: 10:41:21
(UTC+02:00)

Iridium 36 - Visible Passes

Search period start: 25 April 2017 00:00
Search period end: 05 May 2017 00:00
Orbit: 771 x 774 km, 86.4° (Epoch: 23 April)

Date Brightness Start Highest point End Pass type
(mag) Time Alt. Az. Time Alt. Az. Time Alt. Az.
25 Apr 5.7 21:24:12 10° N 21:29:25 76° W 21:34:36 10° S visible
25 Apr 8.4 23:07:46 10° WNW 23:09:05 11° WNW 23:10:24 10° W visible
26 Apr 5.6 20:49:21 10° N 20:54:31 61° E 20:59:38 10° SSE visible
26 Apr 8.0 22:30:59 10° NNW 22:34:38 20° WNW 22:38:16 10° WSW visible
27 Apr 7.2 21:55:25 10° NNW 22:00:03 34° W 22:04:40 10° SW visible
28 Apr 6.2 21:20:12 10° N 21:25:20 59° W 21:30:25 10° SSW visible
29 Apr 8.2 22:27:27 10° NW 22:30:24 15° WNW 22:33:20 10° WSW visible
30 Apr 7.7 21:51:35 10° NNW 21:55:52 27° W 22:00:08 10° SW visible
01 May 6.7 21:16:15 10° NNW 21:21:12 46° W 21:26:09 10° SSW visible
02 May 8.5 22:24:17 10° NW 22:26:09 12° WNW 22:28:00 10° W visible
03 May 8.1 21:47:51 10° NNW 21:51:41 21° WNW 21:55:29 10° SW visible
04 May 7.2 21:12:20 10° NNW 21:17:04 36° W 21:21:46 10° SSW visible
